Location: Bartlow
(52.0833°N, 0.3167°E)
Time: 15:13:22
(UTC+00:00)

NOSS 2-3 (C) - Pass Details

Date: 26 September 2023
Orbit: 503 x 1698 km, 63.3° (Epoch: 06 December)

Event Time Altitude Azimuth Distance (km) Brightness Sun altitude
Exits shadow 02:20:34 52° 328° (NNW) 1,127 4.8 -30.1°
Maximum altitude 02:22:07 79° 43° (NE) 993 4.5 -30.0°
Drops below altitude 10° 02:29:38 10° 130° (SE) 3,188 7.2 -29.1°
Sets 02:32:51 0° 132° (SE) 4,340 8.0 -28.8°
